This demonstration page uses our WeatherBlox Daily Observations layout. Learn more.

36.17497, -115.13722

Hourly Observations for June 15, 2020

Temp ( °F °C ) Dew Point ( °F °C ) Humidity (%) Winds ( mph kmh ) Pressure ( in mb ) Visibility ( mi km ) Precip ( " mm )
12:53 am 00:53 Clear 79 26.1 31 -0.6 17 17 NNW 6 9 29.81 1010 10 16.0934 0 0
1:53 am 01:53 Clear 78 25.6 30 -1.1 17 17 Calm 29.82 1010 10 16.0934 0 0
2:53 am 02:53 Clear 76 24.4 31 -0.6 19 19 Calm 29.82 1010 10 16.0934 0 0
3:53 am 03:53 Clear 74 23.3 34 1.1 23 23 W 3 6 29.83 1010 10 16.0934 0 0
4:53 am 04:53 Clear 73 22.8 34 1.1 24 24 WNW 7 11 29.85 1011 10 16.0934 0 0
5:53 am 05:53 Sunny 72 22.2 35 1.7 26 26 NNW 3 6 29.87 1011 10 16.0934 0 0
9:53 am 09:53 Sunny 89 31.7 31 -0.6 12 12 ESE 6 9 29.77 1008 10 16.09 0 0
10:53 am 10:53 Sunny 92 33.3 29 -1.7 10 10 SE 9 15 29.74 1007 10 16.09 0 0
11:53 am 11:53 Sunny 94 34.4 29 -1.7 10 10 undefined 5 8 29.73 1007 10 16.09 0 0
1:19 pm 13:19 Sunny 96 35.6 28 -2.2 9 9 SSW 8 13 29.68 1005 10 16.09 0 0
1:53 pm 13:53 Sunny 98 36.7 28 -2.2 8 8 SSE 14 22 29.66 1004 10 16.09 0 0
2:53 pm 14:53 Sunny 98 36.7 28 -2.2 8 8 SE 11 18 29.63 1003 10 16.09 0 0
3:25 pm 15:25 Sunny 100 37.8 28 -2.2 8 8 SSE 13 21 29.61 1003 10 16.09 0 0
3:53 pm 15:53 Sunny 100 37.8 28 -2.2 8 8 S 16 26 29.76 1008 10 16.0934 0 0
4:53 pm 16:53 Sunny 100 37.8 26 -3.3 7 7 S 10 17 29.74 1007 10 16.0934 0 0
5:53 pm 17:53 Sunny 99 37.2 25 -3.9 7 7 S 14 22 29.73 1007 10 16.0934 0 0
6:17 pm 18:17 Sunny 98 36.7 25 -3.9 7 7 SSW 18 30 29.56 1001 10 16.0934 0 0
6:53 pm 18:53 Sunny 97 36.1 26 -3.3 8 8 SSW 14 22 29.73 1007 10 16.0934 0 0
7:53 pm 19:53 Sunny 94 34.4 27 -2.8 9 9 SW 13 20 29.73 1007 10 16.0934 0 0
8:53 pm 20:53 Clear 93 33.9 29 -1.7 10 10 S 8 13 29.72 1007 10 16.0934 0 0
9:53 pm 21:53 Clear 91 32.8 31 -0.6 12 12 S 14 22 29.73 1007 10 16.0934 0 0
10:53 pm 22:53 Clear 90 32.2 32 0 13 13 S 13 20 29.72 1006 10 16.0934 0 0
11:53 pm 23:53 Clear 89 31.7 33 0.6 14 14 SSW 14 22 29.72 1006 10 16.0934 0 0

Powered by AerisWeather